WetterOnline ( https://www.wetteronline.de )

Wetter aktuell Höllriegelskreuth

Aktuelles Wetter: München/Stadt (535m)

6-stündlich | Neueste Meldungen
Ortszeit Temperatur Wetter
Do, 26.11. 19:00 1.3° C bedeckt
Do, 26.11. 13:00 5.3° C wolkenlos
Do, 26.11. 7:00 -0.0° C bedeckt
Do, 26.11. 1:00 0.8° C bedeckt
Mi, 25.11. 19:00 2.0° C bedeckt
Mi, 25.11. 13:00 4.4° C wolkenlos
Mi, 25.11. 7:00 0.8° C bedeckt
Mi, 25.11. 1:00 2.8° C bedeckt
Ortszeit Temperatur Wetter
Do, 26.11. 21:30 0.6° C bedeckt
Do, 26.11. 21:20 0.6° C bedeckt
Do, 26.11. 21:10 0.7° C bedeckt
Do, 26.11. 21:00 0.8° C bedeckt
Do, 26.11. 20:50 0.8° C bedeckt
Do, 26.11. 20:40 0.6° C bedeckt
Do, 26.11. 20:30 0.8° C bedeckt
Do, 26.11. 20:00 1.1° C bedeckt
Ortszeit Relative Feuchte Sichtweite
Do, 26.11. 19:00 90% 8 km
Do, 26.11. 13:00 68% 35 km
Do, 26.11. 7:00 92% 4.3 km
Do, 26.11. 1:00 95% 1.1 km
Mi, 25.11. 19:00 90% 6 km
Mi, 25.11. 13:00 70% 29 km
Mi, 25.11. 7:00 91% 6 km
Mi, 25.11. 1:00 87% 11 km
Ortszeit Relative Feuchte Sichtweite
Do, 26.11. 21:30 94% 4.5 km
Do, 26.11. 21:20 94% -
Do, 26.11. 21:10 92% -
Do, 26.11. 21:00 92% 8 km
Do, 26.11. 20:50 92% -
Do, 26.11. 20:40 93% -
Do, 26.11. 20:30 92% 5.0 km
Do, 26.11. 20:00 90% 10 km
Ortszeit Niederschlagsmenge Niederschlagsart
Do, 26.11. 19:00 0.0 l/m2 in 12 Std. -
Do, 26.11. 13:00 0.0 l/m2 in 6 Std. -
Do, 26.11. 7:00 0.0 l/m2 in 12 Std. -
Do, 26.11. 1:00 0.0 l/m2 in 6 Std. -
Mi, 25.11. 19:00 0.0 l/m2 in 12 Std. -
Mi, 25.11. 13:00 0.0 l/m2 in 6 Std. -
Mi, 25.11. 7:00 0.0 l/m2 in 12 Std. -
Mi, 25.11. 1:00 0.0 l/m2 in 6 Std. -
Ortszeit Niederschlagsmenge Niederschlagsart
Do, 26.11. 21:30 0.0 l/m2 in 1 Std. -
Do, 26.11. 21:20 keine Meldung -
Do, 26.11. 21:10 keine Meldung -
Do, 26.11. 21:00 0.0 l/m2 in 1 Std. -
Do, 26.11. 20:50 keine Meldung -
Do, 26.11. 20:40 keine Meldung -
Do, 26.11. 20:30 0.0 l/m2 in 1 Std. -
Do, 26.11. 20:00 0.0 l/m2 in 1 Std. -
Ortszeit Stärke Spitze Richtung
km/h Bft. km/h Grad Sektor
Do, 26.11. 19:00 6 1 13 120° SO
Do, 26.11. 13:00 6 1 11 130° SO
Do, 26.11. 7:00 7 2 11 250° W
Do, 26.11. 1:00 2 1 11 50° NO
Mi, 25.11. 19:00 7 2 14 110° O
Mi, 25.11. 13:00 7 2 14 80° O
Mi, 25.11. 7:00 4 1 14 130° SO
Mi, 25.11. 1:00 4 1 14 50° NO
Ortszeit Stärke Spitze Richtung
km/h Bft. km/h Grad Sektor
Do, 26.11. 21:30 4 1 7 10° N
Do, 26.11. 21:20 4 1 - 10° N
Do, 26.11. 21:10 4 1 - 350° N
Do, 26.11. 21:00 4 1 7 100° O
Do, 26.11. 20:50 4 1 - 100° O
Do, 26.11. 20:40 4 1 - 250° W
Do, 26.11. 20:30 4 1 7 70° O
Do, 26.11. 20:00 4 1 11 90° O
Ortszeit Untergrenze Bedeckung Gattung
total tief tief mittel hoch
Do, 26.11. 19:00 90 m 8/8 8/8 - - -
Do, 26.11. 13:00 - 0/8 0/8 - - -
Do, 26.11. 7:00 60 m 8/8 8/8 - - -
Do, 26.11. 1:00 30 m 8/8 8/8 - - -
Mi, 25.11. 19:00 90 m 8/8 8/8 - - -
Mi, 25.11. 13:00 - 0/8 0/8 - - -
Mi, 25.11. 7:00 60 m 8/8 8/8 - - -
Mi, 25.11. 1:00 150 m 8/8 8/8 - - -
Ortszeit Bedeckungsgrad in Achtel und Wolkenuntergrenze
Do, 26.11. 21:30 8(60m)
Do, 26.11. 21:20 8(60m)
Do, 26.11. 21:10 8(60m)
Do, 26.11. 21:00 8(60m)
Do, 26.11. 20:50 8(60m)
Do, 26.11. 20:40 8(60m)
Do, 26.11. 20:30 8(60m)
Do, 26.11. 20:00 8(90m)
Ortszeit Luftdruck NN (hPa) Tendenz (hPa in 3 Std.)
Do, 26.11. 19:00 1025 - 0,1
Do, 26.11. 13:00 1024 - 1,0
Do, 26.11. 7:00 1026 + 0,3
Do, 26.11. 1:00 1025 + 0,5
Mi, 25.11. 19:00 1024 + 0,8
Mi, 25.11. 13:00 1023 - 0,7
Mi, 25.11. 7:00 1024 + 0,1
Mi, 25.11. 1:00 1024 - 0,8
Ortszeit Luftdruck NN (hPa) Tendenz (hPa in 3 Std.)
Do, 26.11. 21:30 1025 + 0,1
Do, 26.11. 21:20 1025 keine Meldung
Do, 26.11. 21:10 1025 keine Meldung
Do, 26.11. 21:00 1025 0,0
Do, 26.11. 20:50 1025 keine Meldung
Do, 26.11. 20:40 1025 keine Meldung
Do, 26.11. 20:30 1025 + 0,3
Do, 26.11. 20:00 1025 + 0,2
Ortszeit Schneehöhe (cm)
Do, 26.11. 19:00 0
Do, 26.11. 13:00 0
Do, 26.11. 7:00 0
Do, 26.11. 1:00 0
Mi, 25.11. 19:00 0
Mi, 25.11. 13:00 0
Mi, 25.11. 7:00 0
Mi, 25.11. 1:00 0
Ortszeit Schneehöhe (cm)
Do, 26.11. 21:30 0
Do, 26.11. 21:20 0
Do, 26.11. 21:10 0
Do, 26.11. 21:00 0
Do, 26.11. 20:50 0
Do, 26.11. 20:40 0
Do, 26.11. 20:30 0
Do, 26.11. 20:00 0
Link zu dieser Seite / Seite empfehlen

Das Wetter in ...